College Park, MD

1:57 AM EDT on April 25, 2018 (GMT -0400)
College Park

Weather History for KCGS - July, 2014

Change the Weather History Date:

Thursday, July 3, 2014

  Actual Average Record
Temperature  
Mean Temperature 81 °F -  
Max Temperature 91 °F 87 °F 102 °F (1966)
Min Temperature 71 °F 66 °F 48 °F (1952)
Cooling Degree Days 16    
Growing Degree Days 31 (Base 50)    
Moisture  
Dew Point 73 °F    
Average Humidity 82    
Maximum Humidity 100    
Minimum Humidity 52    
Precipitation  
Precipitation 0.00 in - - ()
Sea Level Pressure  
Sea Level Pressure 29.94 in    
Wind  
Wind Speed 2 mph (South)    
Max Wind Speed 9 mph    
Max Gust Speed 17 mph    
Visibility 9 miles    
Events      
Averages and records for this station are not official NWS values.
T = Trace of Precipitation, MM = Missing Value Source: NWS Daily Summary

Daily Weather History Graph

Daily Weather History Graph

Search for Another Location

Airport or City:

Astronomy

Jul. 03, 2014 Rise Set
Actual Time 5:46 AM EDT 8:36 PM EDT
Civil Twilight 5:14 AM EDT 9:08 PM EDT
Nautical Twilight 4:34 AM EDT 9:48 PM EDT
Astronomical Twilight 3:48 AM EDT 10:34 PM EDT
Moon 11:40 AM EDT (7/3) No Moon Set
Length of Visible Light 15h 53m
Length of Day
14h 50m
Waxing Crescent, 33% of the Moon is Illuminated
Jul 3
Waxing Crescent
Jul 5
First Quarter
Jul 12
Full
Jul 18
Last Quarter
Jul 26
New

Hourly Weather History & Observations

Time (EDT) Temp. Heat Index Dew Point Humidity Pressure Visibility Wind Dir Wind Speed Gust Speed Precip Events Conditions
12:15 AM 77.0 °F - 75.2 °F 94% 29.92 in 10.0 mi ESE 3.5 mph - N/A   Clear
12:35 AM 77.0 °F - 75.2 °F 94% 29.93 in 10.0 mi Calm Calm - N/A   Clear
12:55 AM 77.0 °F - 73.4 °F 89% 29.91 in 10.0 mi Calm Calm - N/A   Clear
1:15 AM 75.2 °F - 73.4 °F 94% 29.91 in 7.0 mi West 4.6 mph - N/A   Clear
1:35 AM 77.0 °F - 73.4 °F 89% 29.91 in 10.0 mi Calm Calm - N/A   Clear
1:55 AM 77.0 °F - 73.4 °F 89% 29.90 in 10.0 mi Calm Calm - N/A   Clear
2:15 AM 75.2 °F - 73.4 °F 94% 29.92 in 10.0 mi Calm Calm - N/A   Clear
2:35 AM 75.2 °F - 73.4 °F 94% 29.92 in 10.0 mi Calm Calm - N/A   Clear
2:55 AM 75.2 °F - 73.4 °F 94% 29.92 in 10.0 mi Calm Calm - N/A   Clear
3:15 AM 73.4 °F - 73.4 °F 100% 29.91 in 7.0 mi Calm Calm - N/A   Clear
3:35 AM 73.4 °F - 73.4 °F 100% 29.91 in 5.0 mi Calm Calm - N/A   Clear
3:55 AM 73.4 °F - 73.4 °F 100% 29.91 in 5.0 mi Calm Calm - N/A   Scattered Clouds
4:15 AM 73.4 °F - 73.4 °F 100% 29.91 in 7.0 mi Calm Calm - N/A   Scattered Clouds
4:35 AM 73.4 °F - 73.4 °F 100% 29.93 in 10.0 mi Calm Calm - N/A   Scattered Clouds
4:55 AM 73.4 °F - 73.4 °F 100% 29.93 in 7.0 mi Calm Calm - N/A   Scattered Clouds
5:15 AM 73.4 °F - 73.4 °F 100% 29.94 in 7.0 mi Calm Calm - N/A   Clear
5:35 AM 71.6 °F - 71.6 °F 100% 29.94 in 7.0 mi Calm Calm - N/A   Clear
5:55 AM 71.6 °F - 71.6 °F 100% 29.94 in 5.0 mi Calm Calm - N/A   Clear
6:15 AM 73.4 °F - 71.6 °F 94% 29.95 in 7.0 mi Calm Calm - N/A   Clear
6:35 AM 73.4 °F - 73.4 °F 100% 29.95 in 7.0 mi Calm Calm - N/A   Clear
6:55 AM 73.4 °F - 73.4 °F 100% 29.95 in 7.0 mi Calm Calm - N/A   Mostly Cloudy
7:15 AM 75.2 °F - 73.4 °F 94% 29.96 in 7.0 mi Calm Calm - N/A   Scattered Clouds
7:35 AM 77.0 °F - 73.4 °F 89% 29.95 in 7.0 mi Calm Calm - N/A   Scattered Clouds
7:55 AM 77.0 °F - 73.4 °F 89% 29.95 in 10.0 mi Calm Calm - N/A   Mostly Cloudy
8:15 AM 78.8 °F - 73.4 °F 83% 29.95 in 10.0 mi Calm Calm - N/A   Scattered Clouds
8:35 AM 78.8 °F - 73.4 °F 83% 29.96 in 10.0 mi Calm Calm - N/A   Clear
8:55 AM 80.6 °F 85.4 °F 73.4 °F 79% 29.96 in 10.0 mi South 3.5 mph - N/A   Clear
9:15 AM 80.6 °F 84.6 °F 71.6 °F 74% 29.96 in 10.0 mi SW 3.5 mph - N/A   Clear
9:35 AM 82.4 °F 87.2 °F 71.6 °F 70% 29.95 in 10.0 mi Calm Calm - N/A   Clear
9:55 AM 82.4 °F 87.2 °F 71.6 °F 70% 29.96 in 10.0 mi Calm Calm - N/A   Clear
10:15 AM 84.2 °F 89.6 °F 71.6 °F 66% 29.96 in 10.0 mi Calm Calm - N/A   Clear
10:35 AM 86.0 °F 90.4 °F 69.8 °F 58% 29.96 in 10.0 mi Calm Calm - N/A   Clear
10:55 AM 86.0 °F 90.4 °F 69.8 °F 58% 29.96 in 10.0 mi Calm Calm - N/A   Clear
11:15 AM 87.8 °F 93.8 °F 71.6 °F 58% 29.96 in 10.0 mi East 3.5 mph - N/A   Clear
11:35 AM 87.8 °F 92.6 °F 69.8 °F 55% 29.96 in 10.0 mi Calm Calm - N/A   Clear
11:55 AM 89.6 °F 94.7 °F 69.8 °F 52% 29.95 in 10.0 mi SSE 3.5 mph - N/A   Clear
12:15 PM 89.6 °F 94.7 °F 69.8 °F 52% 29.95 in 10.0 mi ESE 5.8 mph - N/A   Clear
12:35 PM 89.6 °F 94.7 °F 69.8 °F 52% 29.95 in 10.0 mi SE 5.8 mph - N/A   Clear
12:55 PM 89.6 °F 94.7 °F 69.8 °F 52% 29.95 in 10.0 mi South 8.1 mph - N/A   Clear
1:15 PM 89.6 °F 96.2 °F 71.6 °F 55% 29.95 in 10.0 mi South 6.9 mph - N/A   Clear
1:35 PM 89.6 °F 96.2 °F 71.6 °F 55% 29.94 in 10.0 mi South 6.9 mph - N/A   Clear
1:55 PM 89.6 °F 96.2 °F 71.6 °F 55% 29.93 in 10.0 mi South 8.1 mph - N/A   Clear
2:15 PM 89.6 °F 98.2 °F 73.4 °F 59% 29.92 in 10.0 mi South 8.1 mph 17.3 mph N/A   Clear
2:35 PM 89.6 °F 98.2 °F 73.4 °F 59% 29.91 in 10.0 mi South 9.2 mph - N/A   Scattered Clouds
2:55 PM 91.4 °F 100.1 °F 73.4 °F 55% 29.91 in 10.0 mi SSE 9.2 mph - N/A   Scattered Clouds
3:15 PM 89.6 °F 98.2 °F 73.4 °F 59% 29.92 in 10.0 mi SW 5.8 mph - N/A   Scattered Clouds
3:35 PM 89.6 °F 98.2 °F 73.4 °F 59% 29.90 in 10.0 mi South 6.9 mph 16.1 mph N/A   Scattered Clouds
3:55 PM 89.6 °F 98.2 °F 73.4 °F 59% 29.89 in 10.0 mi SSW 8.1 mph - N/A   Scattered Clouds
4:15 PM 89.6 °F 98.2 °F 73.4 °F 59% 29.88 in 10.0 mi South 6.9 mph - N/A   Scattered Clouds
4:30 PM 89.6 °F 98.2 °F 73.4 °F 59% 29.91 in 10.0 mi South 6.9 mph - N/A   Scattered Clouds
7:55 PM 75.2 °F - 71.6 °F 89% 29.95 in 10.0 mi Calm Calm - N/A   Unknown
8:15 PM 73.4 °F - 73.4 °F 100% 29.96 in 10.0 mi Calm Calm - N/A   Scattered Clouds
8:35 PM 75.2 °F - 73.4 °F 94% 29.96 in 10.0 mi WNW 5.8 mph - N/A   Scattered Clouds
8:55 PM 75.2 °F - 73.4 °F 94% 29.96 in 10.0 mi Calm Calm - N/A   Clear
9:15 PM 73.4 °F - 73.4 °F 100% 29.97 in 10.0 mi Calm Calm - N/A   Clear
9:35 PM 73.4 °F - 73.4 °F 100% 29.97 in 7.0 mi Calm Calm - N/A   Clear
9:55 PM 73.4 °F - 73.4 °F 100% 29.96 in 10.0 mi Calm Calm - N/A   Scattered Clouds
10:15 PM 73.4 °F - 73.4 °F 100% 29.97 in 10.0 mi Calm Calm - N/A   Scattered Clouds
10:35 PM 73.4 °F - 73.4 °F 100% 29.97 in 7.0 mi East 3.5 mph - N/A   Mostly Cloudy
10:55 PM 73.4 °F - 73.4 °F 100% 29.96 in 7.0 mi Calm Calm - N/A   Mostly Cloudy
11:15 PM 73.4 °F - 73.4 °F 100% 29.97 in 10.0 mi Calm Calm - N/A   Mostly Cloudy
11:40 PM 73.4 °F - 73.4 °F 100% 29.97 in 10.0 mi Calm Calm - N/A   Mostly Cloudy